Flag for Portugal Weather past 2 weeks in Guimarães, Portugal

Now
56 °F

Cool.


Feels Like: 56 °F
Forecast: 43 / 66 °F
Wind: 2 mph from Northwest

Location: Porto / Pedras Rubras


UV Index: 5 (Moderate)

Visibility: N/A


Pressure: 29.80 "Hg

Humidity: 70%

Dew point: 46 °F

Location of GuimarãesLocation

Historic Weather in Guimarães

°F

Guimarães temperature yesterday

Maximum temperature yesterday: 61 °F (at 2:00 PM)
Minimum temperature yesterday: 54 °F (at 6:00 AM)
Average temperature yesterday: 57 °F

Past Weeks' High & Low Weather Summary

 TemperatureHumidityPressure
High74 °F (Apr 9, 12:00 PM)93% (Apr 13, 9:00 AM)30.16 "Hg (Apr 13, 9:00 AM)
Low52 °F (Apr 11, 3:00 AM)44% (Apr 9, 11:00 AM)29.78 "Hg (Apr 19, 6:00 PM)
Average61 °F75%30.01 "Hg
* Reported Apr 8 3:00 PM — Apr 19 11:00 PM, Guimarães, Weather by CustomWeather, © 2014

Note: Actual official high and low records may vary slightly from our data, if they occured in-between our weather recording intervals... More about our weather records

Advertising

Historic Weather Conditions — Data for Previous 24 hours

 ConditionsComfort  
Time TempWeatherWind HumidityBarometerVisibility
11:00 PM
Apr 19
56 °FCool.2 mph70%29.80 "HgN/A
10:00 PM56 °FCool.6 mph72%29.80 "HgN/A
9:00 PM56 °FCool.6 mph72%29.79 "HgN/A
8:00 PM56 °FCool.6 mph72%29.78 "HgN/A
7:00 PM57 °FCool.7 mph66%29.78 "HgN/A
6:00 PM60 °FCool.9 mph67%29.78 "HgN/A
4:00 PM59 °FCool.7 mph68%29.79 "HgN/A
2:00 PM61 °FCool.9 mph61%29.82 "HgN/A
1:00 PM59 °FCool.8 mph65%29.83 "HgN/A
12:00 PM59 °FCool.8 mph65%29.83 "HgN/A
11:00 AM59 °FCool.5 mph67%29.85 "HgN/A
10:00 AM57 °FCool.6 mph72%29.85 "HgN/A
9:00 AM57 °FCool.3 mph76%29.87 "HgN/A
8:00 AM55 °FCool.2 mph81%29.87 "HgN/A
7:00 AM54 °FCool.2 mph79%29.88 "HgN/A
6:00 AM54 °FCool.2 mph82%29.88 "HgN/A
5:00 AM54 °FCool.2 mph81%29.90 "HgN/A
4:00 AM55 °FCool.5 mph79%29.91 "HgN/A
3:00 AM56 °FCool.5 mph82%29.93 "HgN/A
2:00 AM56 °FCool.5 mph82%29.96 "HgN/A
1:00 AM55 °FCool.5 mph85%29.96 "HgN/A
12:00 AM56 °FCool.5 mph81%29.99 "HgN/A
Weather by CustomWeather, © 2014

See weather overview